STARLINK-3926 (52543 NORAD) Tracking and Keplerian Element Data

This shows tracking and keplerian element data for the satellite.

Feedback or suggestion? Click here.




ElementValue
Catalog52543
NameSTARLINK-3926
Epoch Orbit130
Epoch Day167.08334491
Epoch Year2022
RAAN130.3721
Inclination53.2164
Eccentricity0.0001481
Argument of Perigee60.6839
Mean Anonmoly23.1309
Mean Motion15.49947508
Decay Rate-0.00029561
L11 52543U 22051L 22167.08334491 -.00029561 00000+0 -51368-3 0 9999
L22 52543 53.2164 130.3721 0001481 60.6839 23.1309 15.49947508 1309

Live tracking and technical data element details for STARLINK-3926 (NORAD 52543). STARLINK-3926 can be tracked NOW for your location showing map with azimuth and elevation plus other details from your city location.

Track the satellite on the map from your city or location and see movement details for azimuth, elevation, latitude, longitude, range, height, and movement on the map or in text.







IsCatalogInMostPopularTable: catalog: 52543, numindb: 3
Update: records affected: 1



GetName: 52543 STARLINK-3926

Hit Count: updated at: Sat, 25 Jun 2022 05:43:54 GMT